Piloten Info

Wichtige Hinweise:

  • Neue Tower Frequenz 122,330 kHz - keine Landung ohne Funkkontakt
  • PPR Betrieb
  • Temporäre Hindernisse (Baukräne) nahe dem Flugplatz durch Bauarbeiten entlang der Nürnberger Straße (Östliche Seite).
  • Starts auf RWY 09 sind nicht gestattet. Start generell auf RWY 27. Bei Planung Rückenwinde berücksichtigen!
  • Bei Anflügen auf RWY 27 sind Hindernisse vorhanden, aus diesem Grund die versetzte Schwelle27!
  • Der Flugverein Neumarkt führt seine Starts generell auf RWY 27 und Landungen auf RWY09 durch.
  • Es besteht keine Tankmöglichkeit.

Diese Hinweis sind als Ergänzung / Hilfe zur regulären Flugplanung gedacht.

Auszüge aus AIP VFR ohne Gewähr - es gelten die offiziellen Veröffentlichungen.







METAR Informationen der nächstgelegenen Flughäfen


EDDN / Flughafen Nürnberg „Albrecht Dürer“

EDDN 251250Z 24014KT 9999 BKN019 09/05 Q1002 TEMPO 24015G25KT

ETIC / Fliegerhorst Grafenwöhr AAF

ETIC 251256Z AUTO 24006KT 9999 -RA BKN014 OVC020 07/07 A2955 RMK AO2 SLP014 P0003 T00690069 $

ETIH / Fliegerhorst Hohenfels AAF

ETIH 251256Z AUTO 23007KT 9999 -RA SCT017 BKN026 07/05 A2961 RMK AO2 SLP039 P0002 T00730051 $